Regional Weather Roundup
Issued by NWS Kansas City/Pleasant Hill, MO

Home | Current Version | Previous Version | Text Only | Print | Product List | Glossary On
Versions: 1 2 3 4 5 6 7 8 9 10 11 12 13 14 15 16 17 18 19 20 21 22 23 24 25 26 27 28 29 30 31 32 33 34 35 36 37 38 39 40 41 42 43 44 45 46 47 48 49 50
000
ASUS43 KEAX 261704
RWREAX

WEATHER ROUNDUP FOR EASTERN KANSAS AND NORTHWEST MISSOURI
NATIONAL WEATHER SERVICE KANSAS CITY/PLEASANT HILL MO
1200 PM CDT TUE MAY 26 2015

KSZ040-057-103>105-MOZ028-029-037-043-261800-
...KANSAS CITY METROPOLITAN AREA...

CITY           SKY/WX    TMP DP  RH WIND       PRES   REMARKS
K.C. INTL      PTSUNNY   72  63  73 SW20G28   29.85R
K.C. DOWNTOWN  MOSUNNY   73  59  61 SW18G24   29.84S
LEES SUMMIT    SUNNY     73  60  63 SW22      29.86F
OLATHE - IXD   MOSUNNY   74  59  59 SW23G30   29.87F
OLATHE - OJC   MOSUNNY   73  61  65 SW15G26   29.86F
LAWRENCE       MOSUNNY   74  59  59 SW14G28   29.86S

$$

MOZ001>008-011>017-020>025-030>033-038>040-044>046-053-054-261800-
...NORTHERN AND CENTRAL MISSOURI...

CITY           SKY/WX    TMP DP  RH WIND       PRES   REMARKS
ST. JOSEPH     PTSUNNY   70  62  76 SW20      29.83R
MOSBY          PTSUNNY   72  59  64 S14       29.85S
WARRENSBURG    MOSUNNY   72  61  68 S15       29.88F HAZE
WHITEMAN AFB   MOSUNNY   73  61  67 SW14      29.88S
CLINTON        MOSUNNY   73  64  73 S13       29.92R
SEDALIA        MOSUNNY   72  59  63 SW15G22   29.91R
WARSAW         NOT AVBL
CHILLICOTHE      N/A     71  61  70 SW9       29.85S
KIRKSVILLE     CLOUDY    69  60  73 SW12G21   29.85S

$$

MOZ041-047>049-056>058-063>065-088>090-097-261800-
...EASTERN AND SOUTHERN MISSOURI...

CITY           SKY/WX    TMP DP  RH WIND       PRES   REMARKS
ST. LOUIS INTL PTSUNNY   77  59  53 SW15      29.90R
SPIRIT OF STL  PTSUNNY   74  61  63 SW14G23   29.89R
COLUMBIA       MOSUNNY   71  63  75 SW18G25   29.91R
JEFFERSON CITY PTSUNNY   70  62  76 SW17      29.91R
ROLLA          PTSUNNY   70  61  73 SW15G26   29.93R
OSAGE BEACH    PTSUNNY   72  59  64 SW16G22   29.94R
SPRINGFIELD    PTSUNNY   70  59  68 SW13      29.99R
BRANSON        PTSUNNY   68  59  73 NW9       30.02R
JOPLIN         PTSUNNY   71  62  73 S14       29.98R
WEST PLAINS    CLOUDY    67  59  75 SW13      30.02R

$$

IAZ060-094-KSZ022-034>040-054-083-096-NEZ052-066-093-261800-
...KANSAS...SOUTHEAST NEBRASKA AND IOWA...

CITY           SKY/WX    TMP DP  RH WIND       PRES   REMARKS
TOPEKA         PTSUNNY   72  59  63 W18G26    29.86R
MANHATTAN      PTSUNNY   71  60  68 W15G23    29.87R
EMPORIA        SUNNY     74  56  53 W16G28    29.90R
CHANUTE        MOSUNNY   73  60  63 SW20G26   29.94R
WICHITA        MOSUNNY   76  58  53 SW14      29.93S
OMAHA          CLOUDY    67  60  78 W7        29.80R
LINCOLN        PTSUNNY   67  58  72 NW13      29.83R
FALLS CITY     PTSUNNY   69  62  78 W12       29.82R
LAMONI         PTSUNNY   69  60  73 SW12      29.82S
DES MOINES     LGT RAIN  64  60  87 SW8       29.80R FOG

$$




USA.gov is the U.S. government's official web portal to all federal, state and local government web resources and services.